Home   Weather   Ganja   Past weeks

Flag for Azerbaijan Past Weather in Ganja, Azerbaijan — Yesterday and Last 2 Weeks

Now
54 °F

Passing clouds.


Feels Like: 53 °F
Forecast: 45 / 65 °F
Wind: 5 mph from West

Location: Gyanca Airport

Current Time: Apr 28, 2017 at 6:40:10 am

Latest Report: Apr 28, 2017 at 6:00 am


Visibility: N/A

Pressure: 30.36 "Hg

Humidity: 54%

Dew Point: 37 °F

Location of GanjaLocation

Past Weather in Ganja — Graph

°F

Ganja Temperature Yesterday

Maximum temperature yesterday: 64 °F (at 3:30 pm)
Minimum temperature yesterday: 45 °F (at 1:30 am)
Average temperature yesterday: 55 °F

High & Low Weather Summary for the Past Weeks

 TemperatureHumidityPressure
High77 °F (Apr 18, 4:30 pm)94% (Apr 17, 2:00 am)30.54 "Hg (Apr 17, 2:00 am)
Low43 °F (Apr 23, 6:00 am)19% (Apr 20, 12:00 pm)29.56 "Hg (Apr 14, 4:00 pm)
Average58 °F54%30.05 "Hg
* Reported Apr 13 5:00 am — Apr 28 5:00 am, Ganja, Weather by CustomWeather, © 2017

Note: Actual official high and low records may vary slightly from our data, if they occured in-between our weather recording intervals... More about our weather records

Advertising

Ganja Weather History for the Previous 24 Hours

Scroll right to see more
 ConditionsComfort  
Time TempWeatherWind HumidityBarometerVisibility
5:00 am
Fri, Apr 28
52 °FPassing clouds.5 mph62%30.36 "HgN/A
4:30 am54 °FPassing clouds.5 mph58%30.36 "HgN/A
4:00 am54 °FPassing clouds.3 mph58%30.36 "HgN/A
3:30 am54 °FPassing clouds.2 mph58%30.36 "HgN/A
3:00 am54 °FPassing clouds.2 mph58%30.36 "HgN/A
2:30 am54 °FPassing clouds.3 mph58%30.39 "HgN/A
2:00 am54 °FPassing clouds.3 mph54%30.39 "HgN/A
1:30 am55 °FPassing clouds.8 mph51%30.39 "HgN/A
1:00 am57 °FPassing clouds.5 mph41%30.39 "HgN/A
12:30 am57 °FPassing clouds.10 mph44%30.39 "HgN/A
12:00 am57 °FPassing clouds.10 mph44%30.39 "HgN/A
11:30 pm
Thu, Apr 27
57 °FPassing clouds.13 mph44%30.39 "HgN/A
11:00 pm57 °FPassing clouds.15 mph44%30.39 "HgN/A
10:30 pm57 °FPassing clouds.17 mph44%30.39 "HgN/A
10:00 pm57 °FPassing clouds.15 mph44%30.39 "HgN/A
9:30 pm57 °FPassing clouds.16 mph41%30.39 "HgN/A
9:00 pm59 °FPassing clouds.18 mph39%30.36 "HgN/A
8:30 pm59 °FPassing clouds.15 mph39%30.36 "HgN/A
8:00 pm59 °FPassing clouds.13 mph36%30.36 "HgN/A
7:30 pm59 °FPassing clouds.17 mph36%30.36 "HgN/A
7:00 pm61 °FPassing clouds.20 mph31%30.36 "HgN/A
6:30 pm63 °FPassing clouds.18 mph32%30.36 "HgN/A
6:00 pm63 °FPassing clouds.16 mph32%30.36 "HgN/A
5:30 pm63 °FPassing clouds.17 mph27%30.36 "HgN/A
5:00 pm64 °FPassing clouds.16 mph30%30.36 "HgN/A
4:30 pm64 °FPassing clouds.17 mph28%30.39 "HgN/A
4:00 pm63 °FPassing clouds.15 mph32%30.39 "HgN/A
3:30 pm64 °FPassing clouds.14 mph30%30.39 "HgN/A
3:00 pm63 °FPassing clouds.14 mph32%30.42 "HgN/A
2:30 pm63 °FScattered clouds.14 mph30%30.42 "HgN/A
2:00 pm61 °FScattered clouds.13 mph34%30.42 "HgN/A
1:30 pm61 °FScattered clouds.13 mph34%30.45 "HgN/A
1:00 pm61 °FScattered clouds.13 mph34%30.45 "HgN/A
12:30 pm59 °FScattered clouds.6 mph36%30.45 "HgN/A
12:00 pm57 °FScattered clouds.9 mph44%30.48 "HgN/A
11:30 am57 °FScattered clouds.7 mph44%30.48 "HgN/A
11:00 am57 °FScattered clouds.8 mph48%30.48 "HgN/A
10:30 am54 °FScattered clouds.5 mph51%30.48 "HgN/A
10:00 am54 °FScattered clouds.5 mph54%30.48 "HgN/A
9:30 am52 °FScattered clouds.5 mph58%30.51 "HgN/A
9:00 am50 °FScattered clouds.3 mph62%30.51 "HgN/A
8:30 am48 °FScattered clouds.3 mph66%30.51 "HgN/A
8:00 am48 °FScattered clouds.3 mph66%30.48 "HgN/A
7:30 am46 °FScattered clouds.No wind71%30.48 "HgN/A
7:00 am46 °FScattered clouds.No wind71%30.48 "HgN/A
6:30 am45 °FPassing clouds.No wind76%30.48 "HgN/A
Weather by CustomWeather, © 2017

See weather overviewHow to use our weather pages